Meteo Giornale » Osservazioni meteo Italia » Roma-Ciampino

ore: 08:20 - Osservazioni Meteo Roma-Ciampino
Lat. 41° 47' N Lon. 12° 35' E Alt. 129 metri s.l.m.

sereno Europe/Rome

3 °C

Sereno

Temp. 24 Ore

3 °C

15 °C

Nord

11.1 Km/h

Dew point 1 °C

Umidità 86 %

Visibilità  10 Km

Il sole sorge alle ore 07:28

Il sole tramonta alle ore 17:13

Data e Ora Cielo e Fenomeni T °C DP °C Um. % Pres. hPa Vis. km Vento km/h
Oggi h: 08:20 sereno Sereno 3 1 86 1034 10 N 11.1
Oggi h: 07:50 sereno Sereno 3 1 86 1034 10 N 9.3
Oggi h: 07:20 sereno Sereno 4 0 75 1034 10 N 3.7
Oggi h: 06:50 sereno Sereno 4 1 80 1034 10 N/NE 14.8
Oggi h: 06:20 sereno Sereno 4 1 80 1034 10 N/NE 11.1
Oggi h: 05:50 sereno Sereno 4 1 80 1034 10 N/NE 9.3
Oggi h: 05:20 sereno Sereno 3 1 86 1034 10 N/NE 7.4
Oggi h: 04:50 sereno Sereno 4 1 80 1034 10 N/NE 7.4
Oggi h: 04:20 sereno Sereno 5 1 75 1035 10 N 9.3
Oggi h: 03:50 sereno Sereno 4 1 80 1035 10 N 5.5
Oggi h: 03:20 sereno Sereno 4 2 86 1035 10 N 9.3
Oggi h: 02:50 sereno Sereno 5 2 80 1035 10 N 5.5
Oggi h: 02:20 sereno Sereno 5 1 75 1035 10 N/NO 7.4
Oggi h: 01:50 sereno Sereno 6 2 75 1035 10 N 7.4
Oggi h: 01:20 sereno Sereno 7 2 70 1035 10 N/NE 7.4
Oggi h: 00:50 sereno Sereno 8 2 65 1035 10 N 3.7
Oggi h: 00:20 sereno Sereno 9 2 61 1035 10 E 9.3
Ieri h: 23:50 sereno Sereno 9 2 61 1035 10 E/NE 9.3
Ieri h: 23:20 sereno Sereno 9 2 61 1035 10 E 11.1
Ieri h: 22:50 sereno Sereno 9 2 61 1035 10 E 7.4
Ieri h: 22:20 sereno Sereno 9 2 61 1035 10 E/SE 7.4
Ieri h: 21:50 sereno Sereno 8 2 65 1035 10 N 3.7
Ieri h: 21:20 poco_nuvoloso Poco Nuvoloso 9 2 61 1035 10 N 5.5
Ieri h: 20:50 sereno Sereno 8 3 70 1035 10 N 3.7
Ieri h: 20:20 sereno Sereno 8 2 65 1035 10 N 5.5
Ieri h: 19:50 sereno Sereno 8 3 70 1035 10 N 3.7
Ieri h: 19:20 sereno Sereno 11 2 53 1035 10 N 3.7
Ieri h: 18:50 sereno Sereno 10 2 57 1035 10 N 5.5
Ieri h: 18:20 sereno Sereno 10 3 61 1035 10 N 5.5
Ieri h: 17:50 sereno Sereno 10 3 61 1035 10 NE 9.3
Ieri h: 17:20 sereno Sereno 11 3 57 1035 10 NE 9.3
Ieri h: 16:50 sereno Sereno 12 3 54 1035 10 N 11.1
Ieri h: 16:20 sereno Sereno 12 3 54 1035 10 N 9.3
Ieri h: 15:50 sereno Sereno 13 3 50 1035 10 N 11.1
Ieri h: 15:20 sereno Sereno 13 3 50 1035 10 N 13
Ieri h: 14:50 sereno Sereno 14 3 47 1035 10 N/NO 14.8
Ieri h: 14:20 sereno Sereno 14 2 44 1035 10 N 14.8
Ieri h: 13:50 sereno Sereno 15 2 41 1036 10 N/NO 11.1
Ieri h: 13:20 sereno Sereno 14 3 47 1036 10 N 11.1
Ieri h: 12:50 sereno Sereno 14 2 44 1036 10 N 13
Ieri h: 12:20 sereno Sereno 14 2 44 1037 10 N/NO 11.1
Ieri h: 11:50 sereno Sereno 13 2 47 1037 10 N/NO 7.4
Ieri h: 11:20 sereno Sereno 12 1 46 1037 10 N 11.1
Ieri h: 10:50 sereno Sereno 12 2 50 1037 10 N 13
Ieri h: 10:20 sereno Sereno 11 1 50 1037 10 E/NE 14.8
Ieri h: 09:50 sereno Sereno 9 1 57 1037 10 N/NE 13
Ieri h: 09:20 sereno Sereno 8 0 56 1037 10 N/NE 11.1
Ieri h: 08:50 sereno Sereno 8 -0 56 1037 10 N/NE 13
Ieri h: 08:20 sereno Sereno 6 -1 60 1037 10 N 13
Ieri h: 07:50 sereno Sereno 7 -1 56 1036 10 N/NE 13